Flag for Ecuador Weather past 2 weeks in Guayaquil, Ecuador

Now
77 °F

Partly sunny.


Feels Like: 79 °F
Forecast: 75 / 88 °F
Wind: No wind

Location: Guayaquil / Simon Bolivar


UV Index: 3 (Moderate)

Visibility: N/A


Pressure: 29.83 "Hg

Humidity: 79%

Dew point: 70 °F

Location of GuayaquilLocation

Historic Weather in Guayaquil

°F

Guayaquil temperature yesterday

Maximum temperature yesterday: 88 °F (at 3:00 PM)
Minimum temperature yesterday: 77 °F (at 2:00 AM)
Average temperature yesterday: 81 °F

Past Weeks' High & Low Weather Summary

 TemperatureHumidityPressure
High122 °F (Apr 20, 12:00 PM)89% (Apr 9, 11:00 PM)29.89 "Hg (Apr 9, 11:00 PM)
Low68 °F (Apr 20, 1:00 PM)6% (Apr 20, 12:00 PM)29.68 "Hg (Apr 13, 4:00 PM)
Average82 °F70%29.80 "Hg
* Reported Apr 8 7:00 AM — Apr 23 7:00 AM, Guayaquil, Weather by CustomWeather, © 2014

Note: Actual official high and low records may vary slightly from our data, if they occured in-between our weather recording intervals... More about our weather records

Advertising

Historic Weather Conditions — Data for Previous 24 hours

 ConditionsComfort  
Time TempWeatherWind HumidityBarometerVisibility
7:00 AM
Apr 23
77 °FPartly sunny.No wind79%29.83 "HgN/A
6:00 AM77 °FPassing clouds.1 mph79%29.83 "HgN/A
5:00 AM77 °FPassing clouds.1 mph79%29.80 "HgN/A
4:00 AM77 °FLight rain. Passing clouds.1 mph79%29.80 "HgN/A
3:00 AM79 °FPassing clouds.3 mph70%29.83 "HgN/A
2:00 AM79 °FPassing clouds.7 mph74%29.83 "HgN/A
1:00 AM81 °FPassing clouds.3 mph70%29.83 "HgN/A
12:00 AM81 °FPartly cloudy.7 mph70%29.86 "HgN/A
11:00 PM
Apr 22
81 °FPassing clouds.9 mph70%29.86 "HgN/A
10:00 PM82 °FPartly cloudy.8 mph66%29.83 "HgN/A
9:00 PM84 °FPassing clouds.8 mph70%29.80 "HgN/A
8:00 PM84 °FPassing clouds.1 mph74%29.77 "HgN/A
7:00 PM84 °FPassing clouds.3 mph74%29.74 "HgN/A
6:00 PM84 °FBroken clouds.3 mph74%29.74 "HgN/A
5:00 PM86 °FBroken clouds.6 mph70%29.71 "HgN/A
4:00 PM86 °FScattered clouds.6 mph70%29.71 "HgN/A
3:00 PM88 °FScattered clouds.3 mph59%29.74 "HgN/A
2:00 PM84 °FBroken clouds.6 mph70%29.77 "HgN/A
1:00 PM84 °FScattered clouds.6 mph70%29.80 "HgN/A
12:00 PM82 °FBroken clouds.8 mph74%29.86 "HgN/A
10:00 AM81 °FBroken clouds.6 mph79%29.89 "HgN/A
9:00 AM81 °FPartly sunny.3 mph79%29.86 "HgN/A
8:00 AM79 °FBroken clouds.2 mph79%29.86 "HgN/A
Weather by CustomWeather, © 2014

See weather overview